This demonstration page uses our WeatherBlox Daily Observations layout. Learn more.

Left ArrowRight Arrow

39.01783, -85.05884

Hourly Observations for January 30, 2020

Temp ( °F °C ) Dew Point ( °F °C ) Humidity (%) Winds ( mph kmh ) Pressure ( in mb ) Visibility ( mi km ) Precip ( " mm )
12:52 am 00:52 Cloudy 33 0.6 25 -3.9 72 72 ENE 7 11 30.14 1021 10 16 0.00 0.00
1:52 am 01:52 Cloudy 33 0.6 25 -3.9 72 72 ENE 7 11 30.14 1021 10 16 0.00 0.00
2:52 am 02:52 Cloudy 33 0.6 25 -3.9 72 72 NE 6 9 30.15 1021 10 16 0.00 0.00
3:52 am 03:52 Cloudy 33 0.6 24 -4.4 70 70 NE 6 9 30.14 1021 10 16 0.00 0.00
4:52 am 04:52 Cloudy 33 0.6 24 -4.4 70 70 NE 7 11 30.14 1021 10 16 0.00 0.00
5:13 am 05:13 Cloudy 33 0.6 24 -4.4 70 70 NE 7 11 30.16 1021 10 16 0.00 0.00
5:52 am 05:52 Cloudy 33 0.6 24 -4.4 70 70 NE 7 11 30.15 1021 10 16 0.00 0.00
6:09 am 06:09 Cloudy 33 0.6 23 -5 66 66 NNE 6 9 30.18 1022 10 16 0.00 0.00
6:52 am 06:52 Cloudy 33 0.6 23 -5 66 66 NE 7 11 30.17 1022 10 16 0.00 0.00
7:52 am 07:52 Cloudy 33 0.6 23 -5 66 66 NE 6 9 30.19 1022 10 16 0.00 0.00
8:52 am 08:52 Cloudy 33 0.6 24 -4.4 70 70 NNE 6 9 30.21 1023 10 16 0.00 0.00
9:52 am 09:52 Cloudy 34 1.1 24 -4.4 67 67 Calm 30.22 1023 9 14 0.00 0.00
10:38 am 10:38 Cloudy 35 1.7 24 -4.4 64 64 E 5 7 30.25 1024 10 16 0.00 0.00
10:52 am 10:52 Cloudy 34 1.1 24 -4.4 67 67 E 5 7 30.22 1024 10 16 0.00 0.00
11:52 am 11:52 Cloudy 36 2.2 25 -3.9 64 64 NE 3 6 30.22 1023 10 16 0.00 0.00
12:52 pm 12:52 Cloudy 37 2.8 25 -3.9 62 62 VRB 5 7 30.20 1023 10 16 0.00 0.00
1:34 pm 13:34 Cloudy 37 2.8 25 -3.9 62 62 E 5 7 30.20 1023 10 16 0.00 0.00
1:52 pm 13:52 Cloudy 37 2.8 24 -4.4 59 59 Calm 30.16 1022 10 16 0.00 0.00
2:34 pm 14:34 Cloudy 38 3.3 25 -3.9 60 60 E 3 6 30.18 1022 10 16 0.00 0.00
2:52 pm 14:52 Cloudy 38 3.3 25 -3.9 60 60 VRB 3 6 30.16 1021 10 16 0.00 0.00
3:52 pm 15:52 Cloudy 39 3.9 25 -3.9 57 57 VRB 5 7 30.17 1022 10 16 0.00 0.00
4:52 pm 16:52 Cloudy 38 3.3 25 -3.9 60 60 ENE 3 6 30.17 1022 10 16 0.00 0.00
5:52 pm 17:52 Cloudy 37 2.8 24 -4.4 59 59 ENE 7 11 30.18 1022 10 16 0.00 0.00
6:52 pm 18:52 Cloudy 37 2.8 24 -4.4 59 59 ENE 6 9 30.20 1023 10 16 0.00 0.00
7:52 pm 19:52 Cloudy 36 2.2 25 -3.9 64 64 E 6 9 30.21 1023 10 16 0.00 0.00
8:52 pm 20:52 Cloudy 36 2.2 25 -3.9 64 64 E 8 13 30.21 1023 10 16 0.00 0.00
9:52 pm 21:52 Cloudy 36 2.2 25 -3.9 64 64 ENE 6 9 30.20 1023 10 16 0.00 0.00
10:52 pm 22:52 Cloudy 35 1.7 25 -3.9 67 67 E 5 7 30.21 1023 10 16 0.00 0.00
11:52 pm 23:52 Cloudy 35 1.7 25 -3.9 67 67 ENE 5 7 30.20 1023 10 16 0.00 0.00

Powered by AerisWeather